Location: ?
(35.4214°N, 139.3011°E)
Time: 22:43:59
(UTC+00:00)

Cosmos 1869 - Pass Details

Date: 14 July 2020
Orbit: 520 x 563 km, 82.5° (Epoch: 10 August)

Event Time Altitude Azimuth Distance (km) Brightness Sun altitude
Rises 11:28:07 0° 2° (N) 2,731 7.5 -15.8°
Reaches altitude 10° 11:30:24 10° 10° (N) 1,839 6.4 -16.2°
Maximum altitude 11:34:12 38° 80° (E) 855 4.0 -16.7°
Enters shadow 11:35:09 33° 113° (ESE) 948 4.0 -16.9°
